Green Bay, WI

11:25 AM CDT on September 25, 2016 (GMT -0500)
Austin Straubel International

Weather History for KGRB - November, 2011

Change the Weather History Date:

Sunday, November 6, 2011

  Actual Average Record
Temperature  
Mean Temperature 51 °F 39 °F  
Max Temperature 58 °F 47 °F 68 °F (1975)
Min Temperature 43 °F 31 °F -5 °F (1951)
Degree Days  
Heating Degree Days 14 26  
Month to date heating degree days 125 149  
Since 1 July heating degree days 793 975  
Cooling Degree Days 0 0  
Month to date cooling degree days 0 0  
Year to date cooling degree days 591 398  
Moisture  
Dew Point 42 °F    
Average Humidity 71    
Maximum Humidity 83    
Minimum Humidity 59    
Precipitation  
Precipitation 0.00 in 0.07 in 0.60 in (2013)
Month to date precipitation 0.71 0.44  
Year to date precipitation 33.74 26.32  
Snow  
Snow 0.00 in 0.10 in 4.60 in (1988)
Month to date snowfall 0.0 0.3  
Since 1 July snowfall T 0.5  
Since 1 September snowfall T 0.5  
Snow Depth 0.00 in    
Sea Level Pressure  
Sea Level Pressure 29.91 in    
Wind  
Wind Speed 12 mph (SSW)    
Max Wind Speed 25 mph    
Max Gust Speed 36 mph    
Visibility 9 miles    
Events      
T = Trace of Precipitation, MM = Missing Value Source: NWS Daily Summary

Daily Weather History Graph

Daily Weather History Graph

Search for Another Location

Airport or City:

Trip Planner

Search our weather history database for the weather conditions in past years. The results will help you decide how hot, cold, wet, or windy it might be!

Date:

Astronomy

Nov. 06, 2011 Rise Set
Actual Time 6:36 AM CST 4:35 PM CST
Civil Twilight 6:05 AM CST 5:06 PM CST
Nautical Twilight 5:30 AM CST 5:40 PM CST
Astronomical Twilight 4:56 AM CST 6:14 PM CST
Moon 2:25 PM CST (11/6) 2:34 AM CST (11/6)
Length of Visible Light 11h 00m
Length of Day
9h 59m
Waxing Gibbous, 86% of the Moon is Illuminated
Nov 6
Waxing Gibbous
Nov 10
Full
Nov 18
Last Quarter
Nov 25
New
Dec 2
First Quarter

Hourly Weather History & Observations

Time (CST) Temp. Windchill Dew Point Humidity Pressure Visibility Wind Dir Wind Speed Gust Speed Precip Events Conditions
12:53 AM 45.0 °F 40.1 °F 39.0 °F 80% 30.00 in 10.0 mi South 9.2 mph - N/A   Clear
1:53 AM 43.0 °F 38.2 °F 37.9 °F 82% 29.99 in 10.0 mi South 8.1 mph - N/A   Clear
1:53 AM 44.1 °F 38.6 °F 36.0 °F 73% 29.96 in 10.0 mi SSE 10.4 mph - N/A   Clear
2:53 AM 44.1 °F 38.6 °F 35.1 °F 71% 29.96 in 10.0 mi South 10.4 mph - N/A   Clear
3:53 AM 45.0 °F 40.1 °F 35.1 °F 68% 29.95 in 10.0 mi South 9.2 mph - N/A   Clear
4:53 AM 44.1 °F 39.5 °F 35.1 °F 71% 29.94 in 10.0 mi South 8.1 mph - N/A   Clear
5:53 AM 44.1 °F 39.0 °F 36.0 °F 73% 29.93 in 10.0 mi South 9.2 mph - N/A   Clear
6:53 AM 45.0 °F 40.1 °F 37.9 °F 76% 29.92 in 8.0 mi South 9.2 mph - N/A   Clear
7:53 AM 48.0 °F - 39.9 °F 74% 29.91 in 8.0 mi South 12.7 mph - N/A   Clear
8:53 AM 50.0 °F - 42.1 °F 74% 29.90 in 7.0 mi South 12.7 mph - N/A   Scattered Clouds
9:53 AM 55.0 °F - 46.0 °F 72% 29.88 in 8.0 mi South 11.5 mph - N/A   Clear
10:53 AM 55.9 °F - 45.0 °F 67% 29.87 in 9.0 mi SSW 19.6 mph 31.1 mph N/A   Clear
11:53 AM 57.0 °F - 46.0 °F 67% 29.86 in 9.0 mi SSW 20.7 mph 34.5 mph N/A   Mostly Cloudy
12:53 PM 55.9 °F - 46.0 °F 69% 29.85 in 8.0 mi SSW 20.7 mph 28.8 mph N/A   Overcast
1:53 PM 57.0 °F - 46.9 °F 69% 29.83 in 8.0 mi SSW 13.8 mph 25.3 mph N/A   Overcast
2:53 PM 57.2 °F - 48.2 °F 72% 29.83 in 8.0 mi SSW 13.8 mph 21.9 mph N/A   Overcast
3:53 PM 57.0 °F - 48.0 °F 72% 29.84 in 8.0 mi South 12.7 mph 20.7 mph N/A   Mostly Cloudy
4:53 PM 55.9 °F - 48.0 °F 75% 29.86 in 8.0 mi SSW 11.5 mph 19.6 mph N/A   Mostly Cloudy
5:53 PM 55.9 °F - 48.0 °F 75% 29.87 in 9.0 mi SSW 11.5 mph - N/A   Scattered Clouds
6:53 PM 55.4 °F - 48.2 °F 77% 29.88 in 8.0 mi SSW 15.0 mph 28.8 mph N/A   Clear
7:53 PM 54.0 °F - 48.9 °F 83% 29.91 in 8.0 mi SSW 12.7 mph - N/A   Clear
8:53 PM 53.6 °F - 46.4 °F 77% 29.94 in 9.0 mi SW 10.4 mph - N/A   Clear
9:53 PM 51.1 °F - 37.0 °F 59% 29.99 in 10.0 mi WSW 12.7 mph 21.9 mph N/A   Clear
10:53 PM 48.9 °F - 36.0 °F 61% 30.01 in 10.0 mi WSW 10.4 mph - N/A   Clear